This is the latest recevied weather packets stored in our database for station/object KF0PEC-15. If no packets are shown the sender has not sent any weather packets the latest 10 day(s).
| Time | Temp. | Humidity | Pressure | Rain* | Wind** | Luminosity | Snow |
|---|---|---|---|---|---|---|---|
| 1777865507 | 14.44° C | 34% | 1010.7 hPa | 0 mm | - | 0 W/m² | - |
| 1777864925 | 15° C | 32% | 1010.2 hPa | 0 mm | - | 0 W/m² | - |
| 1777864425 | 15.56° C | 31% | 1009.6 hPa | 0 mm | - | 0 W/m² | - |
| 1777863915 | 16.11° C | 30% | 1009.1 hPa | 0 mm | - | 0 W/m² | - |
| 1777863420 | 16.11° C | 29% | 1008.9 hPa | 0 mm | - | 0 W/m² | - |
| 1777862940 | 16.11° C | 29% | 1008.7 hPa | 0 mm | - | 0 W/m² | - |
| 1777862380 | 16.11° C | 29% | 1008.4 hPa | 0 mm | - | 0 W/m² | - |
| 1777861810 | 16.67° C | 28% | 1007.9 hPa | 0 mm | - | 0 W/m² | - |
| 1777861265 | 16.67° C | 27% | 1007.5 hPa | 0 mm | - | 0 W/m² | - |
| 1777860725 | 17.22° C | 26% | 1007.3 hPa | 0 mm | - | 20 W/m² | - |
| 1777860240 | 17.78° C | 26% | 1007 hPa | 0 mm | - | 107 W/m² | - |
| 1777859645 | 17.78° C | 26% | 1007.1 hPa | 0 mm | - | 270 W/m² | - |
| 1777859065 | 18.33° C | 25% | 1006.8 hPa | 0 mm | - | 536 W/m² | - |
| 1777858535 | 18.33° C | 24% | 1006.7 hPa | 0 mm | - | 688 W/m² | - |
| 1777857975 | 18.33° C | 25% | 1006.2 hPa | 0 mm | - | 106 W/m² | - |
| 1777857391 | 18.89° C | 24% | 1005.9 hPa | 0 mm | - | 177 W/m² | - |
| 1777856810 | 18.89° C | 25% | 1005.9 hPa | 0 mm | - | 301 W/m² | - |
| 1777856310 | 18.89° C | 25% | 1005.7 hPa | 0 mm | - | 360 W/m² | - |
| 1777855765 | 19.44° C | 24% | 1005 hPa | 0 mm | - | 410 W/m² | - |
| 1777855170 | 20° C | 21% | 1004.8 hPa | 0 mm | - | 511 W/m² | - |
| 1777854585 | 20° C | 22% | 1004.8 hPa | 0 mm | - | 705 W/m² | - |
| 1777854055 | 19.44° C | 23% | 1005 hPa | 0 mm | - | 800 W/m² | - |
| 1777853490 | 19.44° C | 25% | 1005.1 hPa | 0 mm | - | 797 W/m² | - |
| 1777852965 | 20° C | 23% | 1005.2 hPa | 0 mm | - | 812 W/m² | - |
| 1777852375 | 20° C | 21% | 1005.3 hPa | 0 mm | - | 101 W/m² | - |
* Rain latest hour (hover to see other rain measurements)
** Current wind speed in m/s (hover to see current wind gust speed)